SCP
0 0 0 0 0 0 0 0 0 0 0 0 0 0 0 0 0 0 0 0 0 0 0 0 0 0 0 0 0 0 0 0
0 0 0 0 0 0 0 0 0 0 0 0 0 0 0 0 0 0 0 0 0 0 0 0 0 0 0 0 0 0 0 0
-0 -0 -0 -0 -0 0 0 0 0 0 0 0 0 0 0 0 0 0 0 0 0 0 0 0 0 0 0 0 0 0 0 0
-0 -0 -0 -0 -0 -0 -0 0 0 0 0 0 0 0 0 0 0 0 0 0 0 0 0 0 0 0 0 0 0 0 0 0
-0 -0 -0 -0 -0 -0 -0 -0 -0 0 0 0 -0 0 0 0 0 0 0 0 0 0 0 0 0 0 0 0 0 0 0 0
-0 -0 -0 -0 -0 -0 -0 -0 -0 0 0 0 0 -0 0 0 0 0 0 0 0 0 0 0 0 0 0 0 0 0 0 0
-0 -0 -0 -0 -0 -0 -0 -0 -0 0 0 0 0 0 0 0 0 0 0 0 0 0 0 0 0 0 0 0 0 0 0 0
-0 -0 -0 -0 -0 -0 -0 -0 -0 0 0 0 0 0 0 0 0 0 0 0 0 0 0 0 0 0 0 0 0 0 0 0
-0 -0 -0 -0 -0 -0 -0 -0 0 0 0 0 0 0 0 0 0 0 0 0 0 0 0 0 0 0 0 0 0 0 0 0
-0 -0 -0 -0 -0 -0 -0 -0 0 0 0 0 0 0 0 0 0 0 0 0 0 0 0 0 0 0 0 0 0 0 0 0
0 -0 -0 -0 -0 -0 -0 0 0 0 0 0 0 0 0 0 0 0 0 0 0 0 0 0 0 0 0 0 0 0 0 0
0 -0 -0 -0 -0 -0 -0 0 -0 -0 0 0 0 0 0 0 0 0 0 0 0 0 0 0 0 0 0 0 0 0 0 0
0 -0 -0 -0 -0 -0 -0 -0 -0 -0 0 0 0 0 0 0 0 0 0 0 0 0 0 0 0 0 0 0 0 0 0 0
0 0 0 0 -0 -0 -0 -0 -0 -0 0 0 0 0 0 0 0 0 0 0 0 0 0 0 0 0 0 0 0 0 0 0
0 0 0 0 -0 -0 -0 -0 -0 -0 -0 0 0 0 0 0 0 0 0 0 0 0 0 0 0 0 0 0 0 0 0 0
0 -0 0 0 0 -0 -0 -0 -0 -0 -0 0 0 0 0 0 0 0 0 0 0 0 0 0 0 0 0 0 0 0 0 0
0 0 0 0 0 -0 -0 -0 -0 -0 -0 -0 0 0 0 0 0 0 0 0 0 0 0 0 0 0 0 0 0 0 0 0
0 0 0 0 -0 -0 -0 -0 -0 -0 -0 -0 0 0 0 0 0 0 0 0 0 0 0 0 0 0 0 0 0 0 0 0
0 0 0 0 -0 -0 -0 -0 -0 -0 -0 0 0 0 0 0 0 0 0 0 0 0 0 0 0 0 0 0 0 0 0 0
0 0 0 0 -0 -0 -0 -0 -0 -0 -0 0 0 0 0 0 0 0 0 0 0 0 0 0 0 0 0 0 0 0 0 0
Wind_Speed_500mb
51 54 55 55 52 46 43 36 24 25 29 41 55 62 59 60 62 65 65 61 59 54 49 44 37 31 27 25 24 24 25 28
45 42 46 52 53 50 45 43 32 23 29 31 40 54 57 60 57 60 63 63 62 58 52 47 39 33 28 24 22 22 24 29
43 43 47 48 54 55 52 45 40 31 26 31 33 45 53 59 55 56 61 65 64 60 55 50 43 37 31 24 21 21 25 28
43 47 52 52 53 57 54 52 42 38 29 29 41 44 46 53 55 55 59 65 66 65 60 55 46 41 36 28 24 24 25 24
35 39 51 56 55 59 58 53 49 39 36 29 35 46 48 46 51 56 57 63 68 68 64 56 49 45 41 37 32 29 26 23
32 37 46 56 59 61 61 60 55 50 40 36 31 42 49 48 48 54 64 65 67 69 65 60 55 51 48 42 36 33 30 27
32 32 48 52 54 63 64 63 63 58 52 41 36 36 48 49 49 53 62 68 70 72 68 66 61 54 48 44 40 36 34 31
42 39 49 53 52 58 66 65 66 64 59 51 43 38 42 50 53 57 61 67 74 74 72 70 63 55 51 47 42 39 37 35
39 45 50 52 56 61 64 68 67 66 63 56 50 42 38 52 58 60 64 69 75 77 76 73 65 59 53 48 45 42 40 37
41 47 48 54 59 65 67 71 70 70 67 61 55 49 41 48 61 64 68 71 77 79 80 77 69 63 57 52 50 48 44 41
38 42 46 53 58 64 68 70 70 73 73 66 61 55 47 48 56 65 70 72 74 81 81 77 70 66 60 56 52 49 48 46
36 45 52 52 56 62 67 68 68 74 76 70 61 57 46 44 51 61 68 72 78 82 82 78 73 67 61 57 56 52 50 49
39 49 52 51 54 59 65 67 69 74 77 74 62 56 44 42 51 58 65 73 78 83 82 80 75 70 66 60 56 52 50 47
44 49 57 53 50 59 67 68 72 77 78 74 62 57 41 43 51 59 65 74 81 84 84 84 79 75 69 63 58 55 53 45
44 52 60 56 55 64 66 67 73 80 79 72 62 57 40 43 51 59 70 76 83 86 87 85 81 80 76 72 65 59 55 52
48 55 61 62 66 67 68 70 74 80 80 69 61 52 43 46 53 62 67 77 84 87 86 89 89 85 76 76 73 68 61 58
54 60 67 69 71 71 71 70 75 80 79 64 59 46 42 47 49 54 55 63 69 74 84 84 77 74 72 67 62 59 60 65
63 65 68 72 75 74 72 72 74 78 74 61 56 46 45 47 51 55 55 55 61 68 76 75 67 66 62 63 63 56 55 65
67 69 70 75 81 74 72 73 73 73 64 57 56 46 44 49 50 52 56 65 66 63 63 65 61 58 59 65 69 68 67 68
72 77 75 79 79 69 69 69 68 65 55 51 50 45 45 48 48 49 51 54 59 62 60 58 58 61 63 67 74 75 71 72
Wind_Direction_500mb
14 9 10 13 13 12 8 353 317 274 258 251 257 255 257 254 249 243 241 241 237 235 234 234 238 243 247 252 245 234 224 213
9 8 1 360 4 5 3 0 344 298 270 255 251 255 256 254 252 247 243 240 236 234 233 233 235 236 237 241 233 221 212 200
2 2 358 353 351 355 358 356 352 333 290 262 246 252 255 254 252 247 242 238 236 233 231 231 231 230 228 229 222 212 205 194
351 354 355 353 346 343 346 350 346 341 320 275 250 246 251 256 253 249 242 238 236 231 230 229 229 227 222 218 210 205 204 198
342 345 344 345 344 337 337 339 339 337 331 309 269 248 244 250 254 251 245 240 236 232 229 227 227 224 220 218 212 209 210 209
326 335 341 339 338 334 331 335 334 331 331 321 296 262 242 238 246 247 243 241 238 232 228 225 224 223 220 218 216 215 214 211
312 330 340 338 334 329 331 331 331 329 326 321 306 278 250 235 238 242 241 238 235 231 227 225 223 222 220 220 219 216 214 211
308 320 329 328 329 328 328 331 328 327 323 317 310 290 260 240 234 236 236 237 234 230 227 226 225 223 220 219 217 215 212 208
301 313 318 318 326 324 327 329 328 323 320 315 311 298 270 242 234 233 233 233 233 230 227 226 224 222 221 218 215 212 209 208
297 308 312 316 320 318 321 325 328 323 321 314 311 301 284 250 235 232 231 231 230 229 227 226 222 221 219 217 213 209 208 206
299 303 308 313 311 312 316 321 324 323 320 314 310 302 285 264 241 234 231 231 229 229 228 226 223 221 218 217 213 210 207 204
297 299 305 307 307 306 310 315 318 319 317 314 306 301 282 269 246 233 232 230 228 227 227 225 222 222 219 217 215 213 210 207
286 293 300 305 302 302 305 312 312 314 314 313 306 300 278 263 248 235 231 230 228 225 224 222 220 219 218 217 214 212 213 211
283 289 293 301 300 301 306 306 307 311 312 311 304 297 271 255 246 237 228 229 226 223 222 219 216 216 215 215 211 210 211 206
283 292 294 296 299 301 304 303 303 308 309 308 302 295 266 252 244 238 229 226 225 220 219 218 216 215 213 211 208 208 207 203
286 290 290 292 291 296 300 300 300 305 306 303 298 289 268 254 244 239 235 228 224 220 217 216 216 215 216 215 210 208 206 204
284 286 288 286 287 291 295 295 296 301 301 298 293 279 266 257 248 242 240 235 227 223 224 223 224 221 219 217 215 213 211 209
279 279 279 280 283 288 292 292 292 297 294 291 286 271 261 254 245 238 230 229 225 224 223 226 228 224 220 216 207 205 218 218
273 274 275 277 281 287 288 287 290 291 285 283 278 264 258 246 245 236 229 222 215 217 217 218 218 217 214 209 207 210 214 220
272 272 274 276 279 284 284 284 288 283 279 275 268 257 250 239 238 234 228 223 218 215 208 209 208 206 203 206 210 209 212 216
Wind_Speed_850mb
51 54 55 55 52 46 43 36 24 25 29 41 55 62 59 60 62 65 65 61 59 54 49 44 37 31 27 25 24 24 25 28
45 42 46 52 53 50 45 43 32 23 29 31 40 54 57 60 57 60 63 63 62 58 52 47 39 33 28 24 22 22 24 29
43 43 47 48 54 55 52 45 40 31 26 31 33 45 53 59 55 56 61 65 64 60 55 50 43 37 31 24 21 21 25 28
43 47 52 52 53 57 54 52 42 38 29 29 41 44 46 53 55 55 59 65 66 65 60 55 46 41 36 28 24 24 25 24
35 39 51 56 55 59 58 53 49 39 36 29 35 46 48 46 51 56 57 63 68 68 64 56 49 45 41 37 32 29 26 23
32 37 46 56 59 61 61 60 55 50 40 36 31 42 49 48 48 54 64 65 67 69 65 60 55 51 48 42 36 33 30 27
32 32 48 52 54 63 64 63 63 58 52 41 36 36 48 49 49 53 62 68 70 72 68 66 61 54 48 44 40 36 34 31
42 39 49 53 52 58 66 65 66 64 59 51 43 38 42 50 53 57 61 67 74 74 72 70 63 55 51 47 42 39 37 35
39 45 50 52 56 61 64 68 67 66 63 56 50 42 38 52 58 60 64 69 75 77 76 73 65 59 53 48 45 42 40 37
41 47 48 54 59 65 67 71 70 70 67 61 55 49 41 48 61 64 68 71 77 79 80 77 69 63 57 52 50 48 44 41
38 42 46 53 58 64 68 70 70 73 73 66 61 55 47 48 56 65 70 72 74 81 81 77 70 66 60 56 52 49 48 46
36 45 52 52 56 62 67 68 68 74 76 70 61 57 46 44 51 61 68 72 78 82 82 78 73 67 61 57 56 52 50 49
39 49 52 51 54 59 65 67 69 74 77 74 62 56 44 42 51 58 65 73 78 83 82 80 75 70 66 60 56 52 50 47
44 49 57 53 50 59 67 68 72 77 78 74 62 57 41 43 51 59 65 74 81 84 84 84 79 75 69 63 58 55 53 45
44 52 60 56 55 64 66 67 73 80 79 72 62 57 40 43 51 59 70 76 83 86 87 85 81 80 76 72 65 59 55 52
48 55 61 62 66 67 68 70 74 80 80 69 61 52 43 46 53 62 67 77 84 87 86 89 89 85 76 76 73 68 61 58
54 60 67 69 71 71 71 70 75 80 79 64 59 46 42 47 49 54 55 63 69 74 84 84 77 74 72 67 62 59 60 65
63 65 68 72 75 74 72 72 74 78 74 61 56 46 45 47 51 55 55 55 61 68 76 75 67 66 62 63 63 56 55 65
67 69 70 75 81 74 72 73 73 73 64 57 56 46 44 49 50 52 56 65 66 63 63 65 61 58 59 65 69 68 67 68
72 77 75 79 79 69 69 69 68 65 55 51 50 45 45 48 48 49 51 54 59 62 60 58 58 61 63 67 74 75 71 72
Wind_Direction_850mb
14 9 10 13 13 12 8 353 317 274 258 251 257 255 257 254 249 243 241 241 237 235 234 234 238 243 247 252 245 234 224 213
9 8 1 360 4 5 3 0 344 298 270 255 251 255 256 254 252 247 243 240 236 234 233 233 235 236 237 241 233 221 212 200
2 2 358 353 351 355 358 356 352 333 290 262 246 252 255 254 252 247 242 238 236 233 231 231 231 230 228 229 222 212 205 194
351 354 355 353 346 343 346 350 346 341 320 275 250 246 251 256 253 249 242 238 236 231 230 229 229 227 222 218 210 205 204 198
342 345 344 345 344 337 337 339 339 337 331 309 269 248 244 250 254 251 245 240 236 232 229 227 227 224 220 218 212 209 210 209
326 335 341 339 338 334 331 335 334 331 331 321 296 262 242 238 246 247 243 241 238 232 228 225 224 223 220 218 216 215 214 211
312 330 340 338 334 329 331 331 331 329 326 321 306 278 250 235 238 242 241 238 235 231 227 225 223 222 220 220 219 216 214 211
308 320 329 328 329 328 328 331 328 327 323 317 310 290 260 240 234 236 236 237 234 230 227 226 225 223 220 219 217 215 212 208
301 313 318 318 326 324 327 329 328 323 320 315 311 298 270 242 234 233 233 233 233 230 227 226 224 222 221 218 215 212 209 208
297 308 312 316 320 318 321 325 328 323 321 314 311 301 284 250 235 232 231 231 230 229 227 226 222 221 219 217 213 209 208 206
299 303 308 313 311 312 316 321 324 323 320 314 310 302 285 264 241 234 231 231 229 229 228 226 223 221 218 217 213 210 207 204
297 299 305 307 307 306 310 315 318 319 317 314 306 301 282 269 246 233 232 230 228 227 227 225 222 222 219 217 215 213 210 207
286 293 300 305 302 302 305 312 312 314 314 313 306 300 278 263 248 235 231 230 228 225 224 222 220 219 218 217 214 212 213 211
283 289 293 301 300 301 306 306 307 311 312 311 304 297 271 255 246 237 228 229 226 223 222 219 216 216 215 215 211 210 211 206
283 292 294 296 299 301 304 303 303 308 309 308 302 295 266 252 244 238 229 226 225 220 219 218 216 215 213 211 208 208 207 203
286 290 290 292 291 296 300 300 300 305 306 303 298 289 268 254 244 239 235 228 224 220 217 216 216 215 216 215 210 208 206 204
284 286 288 286 287 291 295 295 296 301 301 298 293 279 266 257 248 242 240 235 227 223 224 223 224 221 219 217 215 213 211 209
279 279 279 280 283 288 292 292 292 297 294 291 286 271 261 254 245 238 230 229 225 224 223 226 228 224 220 216 207 205 218 218
273 274 275 277 281 287 288 287 290 291 285 283 278 264 258 246 245 236 229 222 215 217 217 218 218 217 214 209 207 210 214 220
272 272 274 276 279 284 284 284 288 283 279 275 268 257 250 239 238 234 228 223 218 215 208 209 208 206 203 206 210 209 212 216